Regional Weather Roundup
Issued by NWS

Home | Current Version | Previous Version | Text Only | Print | Product List | Glossary On
Versions: 1 2 3 4 5 6 7 8 9 10 11 12 13 14 15 16 17 18 19 20 21 22 23 24 25 26 27 28 29 30 31 32 33 34 35 36 37 38 39 40 41 42 43 44 45 46 47 48 49 50
000
ASUS43 KMPX 280901
RWRMN
WEATHER ROUNDUP FOR MINNESOTA
NATIONAL WEATHER SERVICE TWIN CITIES/CHANHASSEN MN
400 AM CDT FRI JUL 28 2017


NOTE: "FAIR" INDICATES FEW OR NO CLOUDS BELOW 12,000 FEET WITH NO
SIGNIFICANT WEATHER AND/OR OBSTRUCTIONS TO VISIBILITY. N/A MEANS
CURRENT SKY AND/OR WEATHER CONDITIONS ARE NOT AVAILABLE.

MNZ060>063-068>070-281000-
   Twin Cities Metro

CITY           SKY/WX    TMP DP  RH WIND       PRES   REMARKS
TWIN CITIES    PTCLDY    68  60  75 CALM      30.07R
ST PAUL        CLEAR     66  61  84 W3        30.07R
CRYSTAL        CLEAR     62  58  86 CALM      30.06R
BLAINE         CLEAR     64  63  94 CALM      30.07S
LAKEVILLE      PTCLDY    59  59 100 CALM      30.07R
EDEN PRAIRIE   PTCLDY    66  61  84 CALM      30.06R
SOUTH ST PAUL  CLEAR     68  58  70 CALM      30.06R
LAKE ELMO      FAIR      59  59 100 CALM      30.08R
$$
MNZ001>005-007-008-013>017-022>024-027-028-281000-
   Northwest Minnesota

CITY           SKY/WX    TMP DP  RH WIND       PRES   REMARKS
BEMIDJI        FOG       53  52  98 CALM      30.11S VSB 1/4
HALLOCK        CLEAR     57  55  94 CALM      30.06S
ROSEAU         CLEAR     55  52  88 CALM      30.08S
WARROAD        CLEAR     57  54  88 CALM      30.09S
THIEF RVR FALL CLEAR     59  57  94 S3        30.09S FOG
CROOKSTON      CLEAR     63  59  88 SE3       30.08S
FOSSTON        CLEAR     55  54  94 CALM      30.10S
DETROIT LAKES  CLEAR     61  59  94 CALM      30.11S
MOORHEAD       CLEAR     61  57  88 E3        30.08S
PARK RAPIDS    CLEAR     57  53  86 W3        30.10S
MAHNOMEN       FAIR      57  55  91 CALM      30.10R
$$
MNZ006-009>011-018-025>026-281000-
   North Central Minnesota

CITY           SKY/WX    TMP DP  RH WIND       PRES   REMARKS
BAUDETTE       FOG       55  55 100 CALM      30.08S VSB 3/4
FLAG ISLAND    CLEAR     68  63  83 CALM      30.07S
INTL FALLS     CLEAR     51  49  92 CALM      30.10R FOG
WASKISH        CLEAR     55  54  94 CALM      30.10S FOG
BIG FORK       CLEAR     52  52 100 CALM      30.11S FOG
LONGVILLE      CLEAR     55  55 100 CALM      30.10S
GRAND RAPIDS   CLEAR     57  56  96 E6        30.13R
CRANE LAKE     CLEAR     50  48  93 CALM      30.12R
ORR            CLEAR     54  52  94 CALM      30.09R
COOK             N/A     54  54 100 CALM      30.12R
WALKER         FAIR      54  54  99 CALM      30.11R FOG
$$
MNZ012-019>021-037-281000-
   Northeast Minnesota

CITY           SKY/WX    TMP DP  RH WIND       PRES   REMARKS
DULUTH         CLEAR     54  52  93 CALM      30.11S
ELY            CLEAR     52  52 100 CALM      30.12R
HIBBING        CLEAR     49  49 100 CALM      30.12R FOG
EVELETH        CLEAR     52  49  90 CALM      30.13R
DULUTH HARBOR  CLEAR     63  57  82 NE5       30.10S
TWO HARBORS    CLEAR     55  50  82 CALM      30.09S
GRAND MARAIS     N/A     59  55  87 CALM      30.09S
G MARAIS ARPRT CLEAR     50  46  87 CALM      30.14S
$$
MNZ029>031-032-039>041-046>048-054>057-064-281000-
   West Central Minnesota

CITY           SKY/WX    TMP DP  RH WIND       PRES   REMARKS
FERGUS FALLS   CLEAR     64  61  88 E5        30.08R
WHEATON        CLEAR     59  55  88 W5        30.10R
ALEXANDRIA     PTCLDY    65  60  84 CALM      30.11R
ELBOW LAKE     FAIR      66  62  85 SE5       30.09R
WADENA         CLEAR     55  55 100 CALM      30.10R
GLENWOOD       PTCLDY    64  61  88 CALM      30.10S
APPLETON       CLOUDY    63  61  94 CALM      30.07S
BENSON         MOCLDY    57  57 100 CALM      30.10R
ORTONVILLE       N/A     64  61  88 MISG        N/A
MADISON        CLOUDY    64  63  94 CALM      30.08S
WILLMAR        FAIR      63  63 100 CALM      30.09S
$$
MNZ033>034-036-042>043-049>051-058-059-281000-
   Central Minnesota

CITY           SKY/WX    TMP DP  RH WIND       PRES   REMARKS
ST CLOUD       CLEAR     60  60 100 CALM      30.08R
SAUK CENTRE    FOG       58  58  99 CALM      30.09S VSB 3/4
PAYNESVILLE    CLOUDY    58  57  97 CALM      30.09S
AITKIN         CLEAR     54  52  94 CALM      30.09S FOG
PINE RIVER     CLEAR     55  55 100 CALM      30.13R FOG
BRAINERD       FOG       59  58  96 CALM      30.09S VSB 3/4
STAPLES        CLEAR     57  55  94 CALM      30.10R FOG
LONG PRAIRIE   FAIR      61  61 100 CALM      30.10S
LITTLE FALLS   CLEAR     57  55  94 CALM      30.09S
LITCHFIELD     PTCLDY    64  63  94 CALM      30.09R
BUFFALO        PTCLDY    62  58  87 CALM      30.09R
MAPLE LAKE     CLEAR     61  60  97 CALM      30.09R
HUTCHINSON     CLEAR     61  60  98 CALM      30.08S
$$
MNZ037-044-045-052-053-281000-
   East Central Minnesota

CITY           SKY/WX    TMP DP  RH WIND       PRES   REMARKS
PRINCETON      CLEAR     61  59  94 CALM      30.09S
MORA           CLEAR     57  55  94 CALM      30.11S
CAMBRIDGE      CLEAR     64  57  77 CALM      30.07R
RUSH CITY      MOCLDY    58  56  94 CALM      30.09R
MOOSE LAKE     PTCLDY    55  54  94 CALM      30.09S FOG
HINCKLEY       FAIR      59  59 100 CALM      30.10R
CLOQUET        CLEAR     55  54  94 CALM      30.11S
MCGREGOR       CLEAR     54  52  94 CALM      30.11S
$$
MNZ071>073-080-081-089-090-097-098-281000-
   Southwest Minnesota

CITY           SKY/WX    TMP DP  RH WIND       PRES   REMARKS
MONTEVIDEO     CLOUDY    63  57  82 CALM      30.08R
CANBY          CLOUDY    62  60  95 CALM      30.09S
MARSHALL       CLOUDY    62  61  96 CALM      30.08R
REDWOOD FALLS  PTCLDY    64  61  90 N3        30.06S
OLIVIA         PTCLDY    63  59  88 CALM      30.06S
PIPESTONE      CLEAR     64  59  82 CALM      30.09S
WINDOM         PTCLDY    61  57  88 CALM      30.07F
WORTHINGTON    PTCLDY    59  57  93 NW3       30.09S
JACKSON        PTCLDY    59  59 100 CALM      30.08S FOG
TRACY          MOCLDY    64  62  91 CALM      30.09R
SLAYTON        HVY RAIN  59  57  91 W3        30.10S
$$
MNZ065>067-074>077-082>085-091>093-281000-
   South Central Minnesota

CITY           SKY/WX    TMP DP  RH WIND       PRES   REMARKS
MANKATO        PTCLDY    68  63  84 NE5       30.06S
NEW ULM        MOCLDY    66  59  77 NE3       30.06S
ST JAMES       PTCLDY    61  61 100 CALM      30.07S
FAIRMONT       PTCLDY    62  61  96 NW3       30.06S
GLENCOE        PTCLDY    63  63 100 CALM      30.07S
FARIBAULT      PTCLDY    61  61 100 CALM      30.07R
OWATONNA       CLEAR     61  59  94 CALM      30.07R FOG
WASECA         CLEAR     59  57  94 N5        30.07S
ALBERT LEA     CLEAR     63  63 100 CALM      30.06S
$$
MNZ078>079-086>088-094>096-281000-
   Southeast Minnesota

CITY           SKY/WX    TMP DP  RH WIND       PRES   REMARKS
ROCHESTER      PTCLDY    62  61  96 N6        30.07R
RED WING       CLEAR     63  59  88 NE3       30.04S
STANTON        PTCLDY    61  60  95 CALM      30.05S
DODGE CENTER   PTCLDY    61  57  88 N5        30.07R
WINONA         CLEAR     61  61 100 NW3       30.04S
AUSTIN         CLEAR     63  61  94 CALM      30.05S
PRESTON        PTCLDY    62  59  90 CALM      30.06S
$$
ABBREVIATIONS USED IN REMARKS
   TC - TEMPERATURES IN CELSIUS
  WCI - WIND CHILL INDEX
   HX - HEAT INDEX
  VSB - VISIBILITY
$$



USA.gov is the U.S. government's official web portal to all federal, state and local government web resources and services.